Weather History for Bishop, CA

Change the Weather History Date:

Saturday, June 29, 2013

  Actual Average Record
Temperature  
Mean Temperature 85 °F 75 °F  
Max Temperature 108 °F 96 °F 108 °F (2013)
Min Temperature 62 °F 54 °F 42 °F (1963)
Degree Days  
Heating Degree Days 0 0  
Month to date heating degree days 0 17  
Since 1 June heating degree days 0 17  
Since 1 July heating degree days 3851 4175  
Cooling Degree Days 20 10  
Month to date cooling degree days 310 202  
Year to date cooling degree days 396 270  
Since 1 June cooling degree days 310 202  
Growing Degree Days 35 (Base 50)    
Moisture  
Dew Point 36 °F    
Average Humidity 23    
Maximum Humidity 40    
Minimum Humidity 6    
Precipitation  
Precipitation 0.00 in 0.01 in 0.53 in (1982)
Month to date precipitation T 0.19  
Year to date precipitation 0.47 3.07  
Snow  
Snow 0.00 in 0.00 in - ()
Month to date snowfall 0.0 0.0  
Since 1 June snowfall 0.0 0.0  
Since 1 July snowfall 2.8 6.8  
Snow Depth 0.00 in    
Sea Level Pressure  
Sea Level Pressure 29.83 in    
Wind  
Wind Speed 7 mph (North)    
Max Wind Speed 25 mph    
Max Gust Speed 33 mph    
Visibility 10 miles    
Events      
T = Trace of Precipitation, MM = Missing Value Source: NWS Daily Summary

Daily Weather History Graph

Daily Weather History Graph

Search for Another Location

Airport:

Trip Planner

Search our weather history database for the weather conditions in past years. The results will help you decide how hot, cold, wet, or windy it might be!

Date:

Astronomy

Jun. 29, 2013 Rise Set
Actual Time 5:35 AM PDT 8:18 PM PDT
Civil Twilight 5:04 AM PDT 8:49 PM PDT
Nautical Twilight 4:26 AM PDT 9:27 PM PDT
Astronomical Twilight 3:42 AM PDT 10:11 PM PDT
Moon No Moon Rise 12:42 PM PDT (6/29)
Length of Visible Light 15h 44m
Length of Day
14h 42m
Waning Gibbous, 54% of the Moon is Illuminated
Jun 29
Waning Gibbous
Jun 29
Last Quarter
Jul 8
New
Jul 15
First Quarter
Jul 22
Full

Hourly Weather History & Observations

Time (PDT) Temp. Dew Point Humidity Pressure Visibility Wind Dir Wind Speed Gust Speed Precip Events Conditions
12:56 AM 75.0 °F 41.0 °F 29% 29.88 in 10.0 mi West 4.6 mph - N/A   Clear
1:56 AM 71.1 °F 36.0 °F 28% 29.89 in 10.0 mi East 4.6 mph - N/A   Clear
2:56 AM 68.0 °F 39.0 °F 35% 29.88 in 10.0 mi NW 5.8 mph - N/A   Clear
3:56 AM 66.0 °F 39.9 °F 38% 29.89 in 10.0 mi NNW 3.5 mph - N/A   Clear
4:56 AM 69.1 °F 39.0 °F 33% 29.89 in 10.0 mi NNW 3.5 mph - N/A   Clear
5:56 AM 64.9 °F 39.9 °F 40% 29.92 in 10.0 mi WNW 6.9 mph - N/A   Clear
6:56 AM 68.0 °F 41.0 °F 37% 29.93 in 10.0 mi NW 3.5 mph - N/A   Clear
7:56 AM 75.9 °F 43.0 °F 31% 29.92 in 10.0 mi NW 4.6 mph - N/A   Clear
8:56 AM 84.0 °F 43.0 °F 24% 29.91 in 10.0 mi Variable 3.5 mph - N/A   Clear
9:56 AM 90.0 °F 39.9 °F 17% 29.89 in 10.0 mi Calm Calm - N/A   Clear
10:56 AM 93.9 °F 37.9 °F 14% 29.88 in 10.0 mi Calm Calm - N/A   Clear
11:56 AM 98.1 °F 39.0 °F 13% 29.85 in 10.0 mi Variable 3.5 mph - N/A   Clear
12:56 PM 100.9 °F 37.0 °F 11% 29.82 in 10.0 mi SE 5.8 mph - N/A   Clear
1:56 PM 106.0 °F 30.0 °F 7% 29.79 in 10.0 mi South 11.5 mph 20.7 mph N/A   Clear
2:56 PM 106.0 °F 27.0 °F 6% 29.77 in 10.0 mi SSE 15.0 mph 25.3 mph N/A   Clear
3:56 PM 107.1 °F 26.1 °F 6% 29.75 in 10.0 mi SSE 11.5 mph 21.9 mph N/A   Clear
4:56 PM 102.0 °F 30.0 °F 8% 29.74 in 10.0 mi South 12.7 mph - N/A   Clear
5:56 PM 102.9 °F 28.0 °F 7% 29.74 in 10.0 mi SSE 23.0 mph 33.4 mph N/A   Clear
6:56 PM 102.0 °F 26.1 °F 7% 29.74 in 10.0 mi SSE 9.2 mph - N/A   Clear
7:56 PM 97.0 °F 30.9 °F 10% 29.74 in 10.0 mi SE 8.1 mph - N/A   Clear
8:56 PM 91.0 °F 37.0 °F 15% 29.77 in 10.0 mi NNE 10.4 mph - N/A   Clear
9:56 PM 90.0 °F 34.0 °F 14% 29.81 in 10.0 mi Variable 4.6 mph - N/A   Clear
10:56 PM 84.0 °F 36.0 °F 18% 29.82 in 10.0 mi North 8.1 mph - N/A   Clear
11:56 PM 80.1 °F 37.0 °F 21% 29.83 in 10.0 mi North 3.5 mph - N/A   Clear